[[{"header":{"parameterUnit":"m.s-1","parameterCategory":1,"la1":30.2991,"la2":30.254,"lo1":-89.0895,"lo2":-89.0444,"dy":0.0017,"dx":0.0017,"nx":28,"ny":28,"refTime":"2024-08-31T21:00:00:Z","depth":0,"parameterNumber":2,"parameterNumberName":"U-component_of_WINDS"},"data":[0,0,0,0,0,0,0,0,0,0,0,0,0,0,0,0,0,0,0,0,0,0,0,0,0,0,0,0,0,0,0,0,0,0,0,0,0,0,0,0,0,0,0,0,0,0,0,0,0,0,0,0,0,0,0,0,0,0,-3.8387,-3.8387,0,-3.8385,-3.8385,-3.8385,-3.8299,-3.8297,-3.8295,-3.8293,-3.8292,-3.8294,-3.8296,0,0,0,0,0,0,0,0,0,0,0,0,0,-3.8318,-3.8319,-3.8387,-3.8387,-3.8387,-3.8385,-3.8385,-3.8385,-3.83,-3.8297,-3.8294,-3.8292,-3.8291,-3.8293,-3.8296,0,0,0,0,0,0,0,0,0,0,0,0,0,-3.8335,-3.832,-3.8387,-3.8344,-3.834,-3.8385,-3.8385,-3.8385,-3.83,-3.8297,-3.8294,-3.829,-3.829,-3.8293,-3.8296,-3.8382,0,0,-3.8306,-3.8307,0,0,0,0,0,0,0,0,-3.8334,-3.8338,-3.835,-3.8347,-3.8343,-3.8339,-3.836,-3.8384,-3.8301,-3.8315,-3.8293,-3.8289,-3.831,-3.8311,-3.8318,-3.8382,-3.8382,-3.8306,-3.8308,-3.8309,-3.831,0,0,0,0,0,0,0,-3.8333,-3.8337,-3.8386,-3.835,-3.8346,-3.8325,-3.8324,-3.8364,-3.8332,-3.8314,-3.8308,-3.8309,-3.8307,-3.8316,-3.8318,-3.8382,-3.8306,-3.8308,-3.831,-3.8312,-3.8519,-3.8522,0,0,0,0,0,0,-3.8338,-3.8337,-3.8386,-3.8386,-3.833,-3.8329,-3.8328,-3.8344,-3.8331,-3.8326,-3.8312,-3.8305,-3.8312,-3.8314,-3.8317,-3.8418,-3.8309,-3.8312,-3.8314,-3.8515,-3.8519,-3.8523,0,0,0,0,0,0,-3.8337,-3.8343,-3.8386,-3.836,-3.8364,-3.8334,-3.8352,-3.8345,-3.8353,-3.8329,-3.8323,-3.8326,-3.8309,-3.8313,-3.8367,-3.8417,-3.8313,-3.8316,-3.8511,-3.8516,-3.8521,-3.862,0,0,0,0,0,0,-3.8335,-3.8343,-3.8375,-3.8361,-3.8365,-3.8435,-3.8355,-3.8348,-3.8359,-3.835,-3.8341,-3.8336,-3.8307,-3.8363,-3.837,-3.8419,-3.8318,-3.8506,-3.8513,-3.852,-3.8612,-3.8628,-3.8642,0,0,0,0,0,-3.8333,-3.8402,-3.8377,-3.8383,-3.8404,-3.8438,-3.8441,-3.8406,-3.8363,-3.8395,-3.838,-3.8336,-3.8411,-3.8369,-3.8377,-3.8427,-3.8503,-3.8511,-3.8519,-3.8605,-3.8625,-3.8642,0,0,0,0,0,0,-3.8421,-3.8399,-3.8371,-3.8438,-3.8441,-3.8424,-3.8463,-3.8428,-3.8442,-3.8433,-3.839,-3.8389,-3.845,-3.8444,-3.8398,-3.8511,-3.8449,-3.8459,-3.8512,-3.8531,-3.8545,-3.8545,-3.8321,0,0,0,0,0,-3.8449,-3.8478,-3.8457,-3.8518,-3.8521,-3.8493,-3.8506,-3.8479,-3.848,-3.8481,-3.847,-3.8473,-3.8497,-3.8514,-3.8534,-3.8612,-3.8609,-3.8651,-3.8665,-3.8678,-3.8687,-3.8729,-3.8747,-3.855,-3.855,-3.855,0,0,-3.8505,-3.8497,-3.8518,-3.8536,-3.8535,-3.8567,-3.8494,-3.853,-3.8554,-3.8486,-3.8537,-3.8529,-3.853,-3.8597,-3.8626,-3.8594,-3.8741,-3.8688,-3.8698,-3.87,-3.8739,-3.8758,-3.8774,-3.8556,-3.8555,-3.8554,0,0,-3.8624,-3.8621,-3.8672,-3.8673,-3.8673,-3.8654,-3.8667,-3.8656,-3.8649,-3.8699,-3.865,-3.8678,-3.872,-3.8723,-3.873,-3.8855,-3.8816,-3.8863,-3.894,-3.8982,-3.8997,-3.9011,-3.9056,-3.9072,-3.8872,-3.8873,-3.8873,0,-3.8694,-3.874,-3.8703,-3.8743,-3.8753,-3.8695,-3.8747,-3.875,-3.8758,-3.8766,-3.8731,-3.8784,-3.8781,-3.8848,-3.8879,-3.8886,-3.89,-3.8863,-3.8998,-3.9011,-3.9023,-3.9066,-3.9083,-3.8878,-3.8878,-3.8877,-3.8877,0,-3.8827,-3.8859,-3.8901,-3.891,-3.8925,-3.8971,-3.8942,-3.8962,-3.8935,-3.892,-3.8973,-3.8968,-3.8987,-3.9001,-3.8975,-3.9066,-3.9046,-3.9006,-3.8942,-3.9048,-3.9088,-3.9103,-3.8887,-3.8885,-3.8883,-3.8881,0,0,-3.8998,-3.8989,-3.9004,-3.9009,-3.9006,-3.9031,-3.9076,-3.9095,-3.9114,-3.9122,-3.9159,-3.9197,-3.916,-3.9169,-3.9143,-3.9179,-3.928,-3.9134,-3.9133,-3.9161,-3.9381,-3.9411,-3.943,-3.9255,-3.9257,-3.926,-3.9381,0,-3.9114,-3.9188,-3.9158,-3.9236,-3.9267,-3.9214,-3.9253,-3.9257,-3.9245,-3.927,-3.9257,-3.9285,-3.9234,-3.9239,-3.9273,-3.926,-3.9323,-3.9251,-3.9289,-3.9291,-3.9289,-3.9451,-3.9482,-3.9596,-3.9396,-3.9398,-3.94,0,-3.9257,-3.9272,-3.9354,-3.9348,-3.936,-3.9395,-3.9412,-3.9436,-3.944,-3.9429,-3.9441,-3.9407,-3.9452,-3.9391,-3.9452,-3.9404,-3.9418,-3.9415,-3.9419,-3.942,-3.9351,-3.9456,-3.9632,-3.9649,-3.9424,-3.9422,-3.942,0,-3.9375,-3.9415,-3.9469,-3.9475,-3.947,-3.9496,-3.9495,-3.9496,-3.9511,-3.9526,-3.9535,-3.9556,-3.9567,-3.9584,-3.9557,-3.9515,-3.9624,-3.9559,-3.9616,-3.9617,-3.964,-3.9639,-3.982,-3.965,-3.965,-3.965,-3.9649,0,-3.9506,-3.9558,-3.9522,-3.9556,-3.9613,-3.9579,-3.9637,-3.963,-3.9632,-3.9664,-3.962,-3.9651,-3.9615,-3.9643,-3.9623,-3.9678,-3.9683,-3.9676,-3.967,-3.968,-3.9681,-3.9687,-3.9679,-3.9654,-3.9653,-3.9652,-3.9652,0,-3.9646,-3.9624,-3.968,-3.9672,-3.9671,-3.9714,-3.9707,-3.9738,-3.9724,-3.9766,-3.9773,-3.9752,-3.9783,-3.976,-3.979,-3.9777,-3.9849,-3.9832,-3.9848,-3.9843,-3.9901,-3.9896,-4.0093,-4.0117,-3.9932,-3.9934,-3.9936,0,-3.973,-3.9769,-3.9766,-3.9785,-3.9787,-3.9817,-3.9832,-3.9801,-3.9819,-3.9828,-3.9859,-3.9887,-3.9907,-3.9959,-3.9947,-3.9971,-3.9954,-4.0021,-3.9957,-3.9966,-3.9955,-3.9953,-3.9957,-4.0034,-4.0036,-4.0038,-4.0039,0,-3.9883,-3.9872,-3.9895,-3.9916,-3.9936,-3.9951,-3.9962,-3.998,-3.9949,-3.9971,-4.0003,-4.0019,-4.0052,-4.008,-4.01,-4.01,-4.0065,-4.006,-4.0074,-4.0084,-4.0092,-4.0089,-3.9883,-4.0055,-4.0054,-4.0052,-4.0052,-4.0051,-3.9998,-4.0031,-4.0034,-4.0063,-4.0069,-4.0081,-4.0111,-4.0102,-4.0128,-4.0152,-4.0132,-4.0171,-4.0176,-4.02,-4.0204,-4.0235,-4.0207,-4.0228,-4.0233,-4.0238,-4.0247,-4.0088,-4.0238,-4.0238,-4.0237,-4.0237,-4.0237,0,-4.0149,-4.0149,-4.0176,-4.0194,-4.0217,-4.0184,-4.0196,-4.0217,-4.0252,-4.026,-4.0282,-4.032,-4.0348,-4.0339,-4.0365,-4.0391,-4.0376,-4.0399,-4.0396,-4.0397,-4.027,-4.0255,-4.041,-4.041,-4.041,-4.041,-4.041,-4.041,-4.023,-4.0284,-4.0274,-4.0331,-4.0331,-4.0369,-4.0379,-4.0391,-4.0397,-4.0442,-4.0465,-4.046,-4.0462,-4.0488,-4.0513,-4.051,-4.0521,-4.055,-4.0541,-4.0423,-4.0405,-4.0389,-4.0375,-4.0553,-4.0553,-4.0665,-4.0666,-4.0667]},{"header":{"parameterUnit":"m.s-1","parameterCategory":1,"la1":30.2991,"la2":30.254,"lo1":-89.0895,"lo2":-89.0444,"dy":0.0017,"dx":0.0017,"nx":28,"ny":28,"refTime":"2024-08-31T21:00:00:Z","depth":0,"parameterNumber":3,"parameterNumberName":"V-component_of_WINDS"},"data":[0,0,0,0,0,0,0,0,0,0,0,0,0,0,0,0,0,0,0,0,0,0,0,0,0,0,0,0,0,0,0,0,0,0,0,0,0,0,0,0,0,0,0,0,0,0,0,0,0,0,0,0,0,0,0,0,0,0,2.0731,2.0732,0,2.0844,2.0846,2.0847,2.0948,2.0949,2.095,2.0952,2.1064,2.1066,2.1068,0,0,0,0,0,0,0,0,0,0,0,0,0,2.0602,2.0604,2.0731,2.0732,2.0734,2.0844,2.0846,2.0847,2.0948,2.0949,2.0951,2.0952,2.1064,2.1066,2.1068,0,0,0,0,0,0,0,0,0,0,0,0,0,2.0681,2.0605,2.0731,2.0798,2.0805,2.0844,2.0846,2.0848,2.0948,2.0949,2.0951,2.0953,2.1063,2.1066,2.1069,2.105,0,0,2.1077,2.1078,0,0,0,0,0,0,0,0,2.0676,2.0685,2.0786,2.0793,2.0801,2.0884,2.0842,2.0915,2.0947,2.0893,2.0952,2.0954,2.1003,2.1011,2.1028,2.1055,2.106,2.1077,2.1079,2.108,2.1081,0,0,0,0,0,0,0,2.0671,2.0681,2.0776,2.0788,2.0797,2.0822,2.0835,2.0856,2.0936,2.0898,2.0906,2.0918,2.1007,2.1025,2.1031,2.1062,2.1077,2.108,2.1082,2.1083,2.1083,2.1081,0,0,0,0,0,0,2.0655,2.0676,2.0772,2.0779,2.0742,2.0823,2.0837,2.0855,2.0936,2.0951,2.0916,2.0922,2.1019,2.1028,2.1035,2.1021,2.108,2.1083,2.1085,2.1084,2.1082,2.1081,0,0,0,0,0,0,2.0652,2.0663,2.0768,2.073,2.0745,2.0823,2.0842,2.0857,2.0875,2.095,2.0965,2.0919,2.1021,2.1032,2.1047,2.1026,2.1084,2.1087,2.1086,2.1084,2.1081,2.0989,0,0,0,0,0,0,2.0648,2.0661,2.0654,2.0729,2.0747,2.0776,2.0841,2.0858,2.088,2.0888,2.0957,2.097,2.1023,2.1042,2.1049,2.1031,2.1089,2.1089,2.1085,2.1082,2.0994,2.0984,2.0975,0,0,0,0,0,2.0643,2.0623,2.0653,2.0665,2.074,2.0775,2.0785,2.0847,2.0877,2.0872,2.0921,2.0968,2.1027,2.1042,2.1052,2.1034,2.109,2.1086,2.1083,2.0999,2.0986,2.0975,0,0,0,0,0,0,2.0541,2.0633,2.0669,2.0672,2.0715,2.0792,2.0786,2.0831,2.0865,2.0872,2.0947,2.0962,2.0969,2.1003,2.1018,2.1022,2.1065,2.1063,2.0998,2.0987,2.0977,2.0968,2.1091,0,0,0,0,0,2.052,2.0541,2.062,2.0615,2.0635,2.0707,2.0724,2.0769,2.0816,2.0834,2.0885,2.0928,2.0957,2.0974,2.1005,2.1001,2.1018,2.0993,2.0983,2.0975,2.0972,2.0974,2.0965,2.1068,2.1068,2.1068,0,0,2.0474,2.0527,2.0536,2.0596,2.0635,2.0655,2.0721,2.0739,2.0755,2.0837,2.0855,2.0893,2.0947,2.0953,2.0958,2.0982,2.0948,2.097,2.0963,2.0964,2.0969,2.0959,2.0951,2.1066,2.1066,2.1066,0,0,2.0402,2.0444,2.0446,2.0484,2.0543,2.0591,2.0592,2.0663,2.0692,2.0712,2.0774,2.0795,2.0842,2.0879,2.0903,2.0849,2.0894,2.0857,2.0805,2.0807,2.0799,2.0792,2.0773,2.0765,2.0854,2.0854,2.0854,0,2.0338,2.0371,2.0441,2.0456,2.0481,2.0559,2.0562,2.0595,2.066,2.0676,2.0702,2.0766,2.0807,2.0824,2.0811,2.0828,2.0832,2.0849,2.0794,2.0788,2.0783,2.0766,2.0759,2.0849,2.085,2.085,2.0851,0,2.029,2.0312,2.0307,2.037,2.0395,2.0403,2.0474,2.0492,2.0535,2.0581,2.0601,2.0655,2.0698,2.0706,2.0747,2.0729,2.0742,2.078,2.0826,2.0767,2.0752,2.0746,2.0842,2.0844,2.0845,2.0846,0,0,2.0153,2.0258,2.0254,2.0285,2.0357,2.0376,2.0389,2.0434,2.0447,2.0491,2.0504,2.0545,2.0582,2.061,2.0657,2.0658,2.0614,2.0697,2.0699,2.0679,2.0598,2.0568,2.056,2.0645,2.0644,2.0643,2.0594,0,2.0092,2.0121,2.0186,2.0194,2.0217,2.0293,2.0305,2.0351,2.0395,2.0421,2.047,2.0497,2.0544,2.0562,2.0567,2.0618,2.0598,2.0622,2.0658,2.0658,2.0641,2.0552,2.052,2.047,2.0588,2.0588,2.0587,0,2.0024,2.0065,2.0076,2.015,2.0162,2.0171,2.0219,2.0243,2.0297,2.033,2.0363,2.0416,2.0435,2.0478,2.0506,2.0521,2.054,2.0568,2.0567,2.0572,2.0618,2.0554,2.0456,2.0448,2.0578,2.0579,2.058,0,1.9924,1.9982,1.9996,2.002,2.0107,2.0112,2.0148,2.0205,2.0229,2.0271,2.0287,2.033,2.0353,2.0385,2.0449,2.0474,2.047,2.0518,2.0497,2.0496,2.0491,2.049,2.0394,2.0504,2.0504,2.0505,2.0505,0,1.9848,1.9852,1.9953,1.9961,1.9969,2.0044,2.0049,2.0093,2.0143,2.0162,2.0231,2.0247,2.0331,2.0358,2.0408,2.0424,2.0434,2.046,2.0473,2.0454,2.045,2.0466,2.0471,2.0503,2.0503,2.0504,2.0504,0,1.9736,1.9803,1.9825,1.9907,1.9927,1.9929,1.9999,2.0011,2.0061,2.0085,2.0095,2.0173,2.0208,2.0276,2.0329,2.0363,2.0368,2.0391,2.0349,2.0357,2.0333,2.0334,2.0243,2.0235,2.035,2.0348,2.0348,0,1.9682,1.9688,1.9771,1.979,1.9824,1.9852,1.9878,1.9954,1.9977,2.0042,2.0046,2.0087,2.0124,2.0177,2.0238,2.028,2.0304,2.027,2.0311,2.0292,2.0304,2.0303,2.0304,2.026,2.0258,2.0257,2.0256,0,1.9581,1.9615,1.965,1.9697,1.9726,1.9766,1.981,1.9821,1.9907,1.993,1.9968,1.9997,2.0053,2.0093,2.0145,2.0183,2.0233,2.0243,2.024,2.0219,2.0195,2.0208,2.0323,2.0244,2.0245,2.0246,2.0247,2.0247,1.9497,1.9506,1.9567,1.9604,1.9646,1.9686,1.9702,1.9755,1.9789,1.9841,1.9884,1.9918,1.9976,2.0051,2.0087,2.0115,2.0139,2.0135,2.0134,2.0132,2.0124,2.0192,2.0125,2.0125,2.0125,2.0126,2.0126,0,1.9399,1.9443,1.9476,1.9537,1.9567,1.9615,1.9667,1.9688,1.9718,1.9768,1.9804,1.9848,1.9889,1.9955,2.0001,2.0011,2.0035,2.002,2.002,2.0028,2.0099,2.0097,2.0,2.0,2.0,2.0,2.0,2.0,1.9351,1.937,1.9412,1.9453,1.9497,1.9532,1.9558,1.9596,1.9637,1.9684,1.9719,1.9762,1.982,1.9871,1.991,1.9929,1.9943,1.992,1.9945,2.0011,2.0022,2.0034,2.0032,1.9922,1.9922,1.9872,1.9871,1.9871]}]]